GEFSCGP_con_maxscp_228.txt.gz
SCP
0 0 0 0 0 0 0 0 0 1 1 1 1 1 1 1 2 3 4 5 3 2 2 2 2 2 1 1 1 1 1 1 1 1 1 0 0 0 0 0 0 0 0 0
0 0 0 0 0 0 0 0 0 0 1 1 1 1 1 1 2 2 3 3 3 2 2 2 2 2 2 2 2 2 2 1 1 1 1 0 0 0 0 0 0 0 0 0
0 0 0 0 0 0 0 0 0 0 0 1 1 1 1 1 1 1 1 2 2 2 1 1 2 2 2 2 2 2 2 2 1 1 1 1 0 0 0 0 0 0 0 0
0 0 0 0 0 0 0 0 0 0 0 0 1 1 1 1 1 1 1 1 2 2 1 1 1 2 3 3 3 3 3 2 2 2 1 1 1 1 1 1 1 1 1 1
0 0 0 0 0 0 0 0 0 0 0 0 0 1 1 1 1 1 1 1 1 2 1 1 1 2 3 3 3 3 3 3 2 2 2 2 2 1 1 1 1 1 1 1
0 0 0 0 0 0 0 0 0 0 0 0 0 0 1 1 1 1 1 1 1 2 2 2 2 2 3 3 3 3 3 3 3 2 2 2 2 2 2 2 2 2 2 2
0 0 0 0 0 0 0 0 0 0 0 0 0 0 1 1 1 1 1 1 1 2 2 2 2 3 3 3 3 3 4 4 3 3 3 3 3 3 3 3 3 3 3 3
0 0 0 0 0 0 0 0 0 0 0 0 0 1 1 2 2 2 1 1 1 1 2 2 3 3 4 4 3 2 3 4 4 4 4 4 4 4 4 4 4 4 4 5
0 0 0 0 0 0 0 0 0 0 0 0 1 2 2 2 2 2 2 1 1 1 2 2 3 4 5 4 4 3 3 4 5 5 5 5 5 5 5 5 5 5 6 6
0 0 0 0 0 0 0 0 0 0 0 0 1 2 2 2 2 2 2 2 2 2 2 3 3 4 5 5 5 4 4 5 5 6 6 6 6 6 6 6 6 7 7 6
0 0 0 0 0 0 0 0 0 0 0 0 1 1 2 2 2 2 2 3 3 3 3 3 3 5 6 6 6 5 5 6 7 7 8 8 8 7 7 7 7 6 6 6
0 0 0 0 0 0 0 0 0 0 0 0 0 1 1 2 2 2 3 4 4 4 4 4 4 5 7 7 6 6 6 7 7 8 8 7 7 6 6 5 5 5 5 5
0 0 0 0 0 0 0 0 0 0 0 0 0 1 2 3 3 3 3 3 4 4 4 4 5 6 7 7 6 6 7 7 7 7 7 6 5 4 4 4 4 4 4 4
0 0 0 0 0 0 0 0 0 0 0 0 1 2 2 3 3 3 3 4 4 4 4 4 5 6 7 6 5 6 7 7 7 7 7 6 4 4 3 3 3 3 3 3
0 0 0 0 0 0 0 0 1 1 1 1 2 2 3 3 3 3 4 5 5 5 5 5 6 6 6 5 5 6 7 8 9 8 7 5 4 4 4 4 3 3 3 3
0 0 0 0 0 0 0 1 1 1 1 2 2 3 3 3 3 3 5 7 7 6 6 6 6 6 5 5 5 6 8 9 9 8 6 4 4 4 5 5 4 3 3 3
0 0 0 0 0 0 0 1 1 2 2 2 2 3 3 3 3 4 7 9 9 8 7 7 6 5 4 4 4 6 8 9 8 7 5 4 4 5 6 6 4 3 3 3
0 0 0 0 0 0 0 1 1 2 2 2 2 2 3 4 4 5 7 10 10 9 8 6 5 4 3 3 3 4 6 7 7 6 5 5 6 7 7 6 5 4 4 4
0 0 0 0 0 0 0 1 1 1 2 1 2 2 3 4 5 5 6 8 9 8 6 5 5 5 4 3 4 4 5 6 6 6 6 7 7 8 8 7 6 5 5 5
0 0 0 0 0 0 0 0 0 1 1 1 1 2 3 4 5 5 5 6 6 5 4 4 4 5 5 5 5 6 6 6 7 7 7 7 9 9 9 9 8 7 6 6
0 0 0 0 0 0 0 0 0 0 0 0 1 1 2 3 4 4 4 4 4 4 4 4 5 5 5 6 6 5 4 5 7 8 8 8 9 11 11 11 10 8 6 6
0 0 0 0 0 0 0 0 0 0 0 0 0 1 1 2 3 3 3 3 4 4 4 4 4 4 4 4 4 3 3 4 6 7 8 8 10 12 12 11 9 6 6 6
0 0 0 0 0 0 0 0 0 0 0 0 0 1 1 1 2 2 3 3 3 3 3 3 3 3 3 3 3 3 3 5 6 8 9 9 10 11 10 8 6 5 5 6
0 0 0 0 0 0 0 0 0 0 0 0 1 1 1 1 1 1 2 2 3 2 2 2 2 2 2 2 2 3 5 8 9 10 11 10 10 8 6 5 4 4 5 5
0 0 0 0 0 0 0 0 0 0 0 1 1 1 1 1 1 1 1 2 2 2 2 2 3 3 2 2 2 3 6 10 11 11 10 8 7 6 5 4 4 3 4 4
0 0 0 0 0 0 0 0 0 0 1 1 1 1 1 1 0 0 1 2 2 2 2 3 3 3 3 3 2 3 6 9 10 9 7 6 6 5 5 4 3 2 2 3

GEFSCGP_con_maxscp_234.txt.gz
SCP
0 0 0 0 0 0 0 0 0 1 1 1 0 1 1 1 1 1 1 1 2 3 3 2 2 2 2 2 2 2 2 2 2 1 1 1 1 1 1 0 0 0 0 1
0 0 0 0 0 0 0 0 0 1 1 1 0 1 1 1 1 1 1 2 2 2 2 2 2 2 2 2 2 2 2 2 2 1 1 1 1 1 0 0 1 1 1 1
0 0 0 0 0 0 0 0 0 1 1 1 1 1 1 1 1 1 1 1 2 2 2 2 2 2 2 2 2 1 2 2 1 1 1 1 1 1 1 1 1 1 1 1
0 0 0 0 0 0 0 0 0 0 1 1 1 1 1 1 1 1 1 1 1 1 2 2 2 2 2 2 2 1 1 2 2 2 1 1 1 1 1 1 1 1 2 2
0 0 0 0 0 0 0 0 0 0 0 1 1 0 0 1 1 1 1 1 1 1 1 2 2 3 3 2 2 2 2 2 2 2 2 1 1 1 1 1 2 2 2 2
0 0 0 0 0 0 0 0 0 0 0 1 1 0 0 1 1 1 1 1 2 2 2 2 3 3 3 3 2 2 2 3 3 3 2 2 2 2 2 2 2 2 2 2
0 0 0 0 0 0 0 0 0 0 0 0 1 0 1 1 1 1 1 2 2 2 2 2 3 3 3 3 3 3 3 4 4 3 3 3 3 3 2 2 2 2 3 3
0 0 0 0 0 0 0 0 0 0 0 0 0 0 1 1 1 1 1 2 1 1 2 2 2 2 3 3 4 4 4 4 4 4 4 4 4 3 3 2 2 3 3 3
0 0 0 0 0 0 0 0 0 0 0 0 0 0 1 1 1 1 1 1 2 2 2 2 2 2 3 3 4 4 4 5 5 5 5 5 4 4 3 2 3 3 3 4
0 0 0 0 0 0 0 0 0 0 0 0 0 0 1 1 1 1 1 2 3 3 2 2 2 2 3 3 4 5 6 6 6 5 5 5 4 4 3 3 3 3 3 3
0 0 0 0 0 0 0 0 0 0 0 0 0 0 1 1 1 1 1 3 4 4 4 3 3 3 3 3 4 7 8 8 7 6 5 5 4 4 3 3 3 3 3 3
0 0 0 0 0 0 0 0 0 0 0 0 0 0 1 1 1 2 2 3 4 5 5 4 4 4 4 4 6 9 10 8 7 6 5 5 5 4 3 3 4 4 4 4
0 0 0 0 0 0 0 0 0 0 0 0 0 0 1 1 2 2 3 4 4 5 5 5 4 4 5 6 8 9 9 8 7 6 6 6 6 6 5 5 6 6 6 5
0 0 0 0 0 0 0 0 0 0 0 0 0 1 1 1 2 2 3 4 5 5 5 5 5 5 6 8 8 7 8 8 8 8 7 7 8 7 7 8 8 8 8 8
0 0 0 0 0 0 0 0 0 0 0 0 0 1 1 2 2 2 2 3 5 5 5 5 6 7 8 9 8 7 7 9 10 10 10 10 9 9 8 8 8 8 9 10
0 0 0 0 0 0 0 0 0 0 0 0 1 1 2 2 2 2 2 3 4 5 5 6 7 8 9 10 9 7 7 9 12 13 12 11 10 9 8 8 9 9 10 10
0 0 0 0 0 0 0 0 0 0 1 1 1 1 2 2 3 3 3 3 4 5 5 6 8 11 11 11 11 9 9 11 13 13 12 10 9 9 9 9 9 10 11 10
0 0 0 0 0 0 0 0 1 1 1 1 1 1 2 3 4 4 4 4 5 5 6 6 9 12 12 10 9 9 10 11 12 11 11 9 9 9 9 9 10 12 12 11
0 0 0 0 0 0 0 1 1 1 1 1 1 2 3 3 4 4 4 5 6 7 7 7 8 9 9 8 7 7 8 8 9 9 10 9 9 9 8 8 10 12 12 12
0 0 0 0 0 0 0 1 1 1 1 1 2 2 3 3 3 3 4 5 6 8 8 8 7 7 7 8 7 7 7 7 8 8 9 9 9 9 9 9 10 11 12 11
0 0 0 0 0 0 0 1 1 1 1 1 2 2 3 3 3 3 3 4 5 7 8 8 7 7 8 8 9 8 8 8 9 9 9 9 9 9 9 11 11 11 11 10
0 0 0 0 0 0 1 1 1 1 1 1 2 3 3 3 3 3 3 3 5 7 8 7 7 7 8 8 7 7 7 8 9 9 9 8 8 9 10 12 12 11 10 9
0 0 1 0 1 1 1 1 1 1 1 1 2 3 3 3 3 3 3 3 5 7 8 7 6 6 6 6 5 5 5 6 7 7 8 9 9 10 11 12 11 11 10 9
1 1 1 1 1 1 1 1 1 1 1 1 2 2 2 3 3 3 3 3 5 7 7 6 5 4 5 5 4 3 4 5 5 6 7 10 11 11 11 11 12 13 12 12
0 1 1 1 1 1 1 1 1 1 1 1 1 2 2 3 3 3 3 4 6 7 7 5 3 3 4 4 4 3 4 4 5 5 6 9 11 10 9 10 12 14 14 13
0 0 1 1 1 1 1 1 0 0 1 1 1 2 2 3 3 3 3 5 7 8 6 4 3 2 4 4 4 4 4 4 4 4 5 7 10 10 8 10 12 13 12 11

GEFSCGP_con_maxscp_240.txt.gz
SCP
0 0 0 0 0 0 0 0 0 0 0 0 1 1 1 2 1 1 2 2 2 2 3 3 3 3 4 5 5 4 4 3 3 3 3 2 1 1 1 1 2 3 2 2
0 0 0 0 0 0 0 0 0 1 1 1 1 1 1 2 2 2 2 2 2 3 3 3 3 4 5 5 4 4 4 4 4 4 3 2 2 1 1 1 2 3 2 2
0 0 0 0 0 0 0 0 0 1 1 1 0 1 2 2 2 2 2 2 2 3 4 4 4 5 5 5 4 3 4 4 3 3 3 2 2 2 2 2 2 3 3 2
0 0 0 0 0 0 0 0 0 0 1 0 0 1 2 2 2 2 2 2 2 3 4 5 5 5 5 4 4 3 4 4 3 3 2 2 2 2 2 2 2 3 3 3
0 0 0 0 0 0 0 0 0 0 0 0 0 1 2 3 3 2 2 2 3 3 4 6 6 5 5 4 4 4 5 5 4 4 3 2 2 2 2 3 3 3 3 4
0 0 0 0 0 0 0 0 0 0 0 0 0 1 2 3 3 2 2 3 4 4 5 6 7 7 5 5 4 5 7 7 6 5 4 4 3 3 3 4 4 4 4 4
0 0 0 0 0 0 0 0 0 0 0 0 0 1 2 2 3 3 3 4 4 4 4 6 8 9 7 6 6 7 9 10 9 8 6 5 5 4 4 5 5 4 4 4
0 0 0 0 0 0 0 0 0 0 0 0 0 1 2 3 3 3 3 4 4 4 4 5 8 10 9 7 7 8 11 13 13 11 9 8 7 6 5 6 6 5 4 3
0 0 0 0 0 0 0 0 0 0 0 0 0 2 4 4 3 3 3 3 3 3 3 4 6 8 8 8 9 10 12 15 17 16 14 12 10 9 8 9 8 7 4 3
0 0 0 0 0 0 0 0 0 0 0 0 0 2 4 5 4 3 3 5 7 6 4 3 4 5 7 8 9 11 13 15 18 19 18 15 14 13 12 11 10 7 5 3
0 0 0 0 0 0 0 0 0 0 0 0 0 1 3 5 5 5 6 10 13 13 9 6 4 5 6 8 10 11 13 15 17 19 20 19 18 16 14 12 9 7 5 4
0 0 0 0 0 0 0 0 0 0 0 0 0 1 3 5 7 8 9 12 15 15 13 10 7 6 7 8 10 11 12 13 14 16 18 18 17 15 12 9 7 6 5 5
0 0 0 0 0 0 0 0 0 0 0 0 0 2 4 6 6 7 9 10 11 12 13 11 9 9 9 9 10 11 11 11 12 13 13 12 12 10 9 8 7 6 6 6
0 0 0 0 0 0 0 0 0 0 0 0 1 3 5 5 5 5 6 6 8 10 11 11 10 10 11 11 12 13 13 12 12 12 11 11 11 10 9 9 9 8 7 6
0 0 0 0 0 0 0 0 0 0 0 0 2 4 5 5 4 4 4 5 6 8 10 10 10 10 13 15 18 21 21 18 14 14 14 16 17 15 13 12 10 9 8 7
0 1 1 0 0 0 0 0 0 0 0 0 2 3 4 5 5 5 5 6 6 7 8 9 10 12 15 18 22 24 26 21 17 16 18 20 22 21 17 13 10 9 9 9
1 1 1 1 1 0 0 0 0 0 0 1 1 2 3 4 5 7 8 8 8 7 8 10 13 16 16 17 19 20 20 19 18 20 22 24 25 24 20 14 10 9 9 9
1 1 1 1 1 1 0 0 0 1 1 1 1 2 2 2 4 6 8 9 9 9 10 12 15 16 14 13 14 14 15 16 18 21 23 24 24 23 18 14 10 9 9 10
0 1 1 0 1 1 0 0 0 1 1 1 2 2 2 2 3 5 7 8 9 9 10 12 12 11 10 10 11 12 13 14 16 16 17 17 17 16 14 12 11 10 10 11
0 0 0 0 0 0 0 1 1 1 1 1 2 3 3 3 4 6 7 9 10 11 11 10 9 8 8 8 9 11 12 13 13 11 11 11 11 11 11 11 11 11 11 11
0 0 0 0 0 1 1 1 1 2 2 2 3 3 5 5 6 7 8 10 11 12 12 11 9 9 10 10 10 12 14 14 12 10 9 8 8 8 9 10 11 11 11 11
0 1 1 1 1 1 2 3 3 3 3 3 3 4 5 6 7 7 8 10 10 10 10 10 10 12 13 13 13 14 13 12 11 10 9 9 8 8 9 9 9 10 10 10
0 1 1 1 1 2 2 2 3 4 4 4 3 4 5 6 7 8 9 10 10 10 10 10 13 15 15 14 14 14 12 9 9 9 9 9 9 9 10 9 9 8 9 9
0 1 1 1 1 1 2 2 2 2 3 3 3 3 4 5 8 10 11 12 14 16 16 14 15 15 14 12 12 11 9 8 8 9 8 8 8 8 9 9 9 9 9 9
0 0 1 1 1 2 2 2 2 2 3 2 2 3 3 4 7 9 12 14 16 18 18 16 15 14 11 9 8 8 7 8 8 8 7 7 7 7 7 8 8 8 7 7
0 0 1 1 1 2 2 2 2 3 3 3 2 2 3 4 6 8 11 13 14 15 15 15 14 12 10 7 6 7 7 8 8 7 7 7 7 7 6 7 6 6 5 5

GEFSCGP_con_maxscp_246.txt.gz
SCP
0 0 0 0 0 0 0 0 0 0 0 0 1 1 1 2 3 4 4 4 3 3 3 2 3 4 5 5 5 4 3 3 2 2 1 1 1 1 1 1 2 2 2 1
0 0 0 0 0 0 0 0 0 0 0 1 1 1 1 2 3 4 5 5 4 4 3 3 4 6 6 6 5 4 3 3 2 2 1 1 1 1 1 1 1 2 2 2
0 0 0 0 0 0 0 0 0 0 0 1 1 1 1 2 3 4 4 5 5 5 4 5 6 6 6 5 4 4 3 2 2 2 2 2 1 1 1 1 1 1 1 1
0 0 0 0 0 0 0 0 0 0 0 0 1 1 1 2 2 3 3 4 6 6 6 5 6 5 5 4 4 3 3 3 3 3 3 3 3 2 2 2 2 2 2 1
0 0 0 0 0 0 0 0 0 0 0 0 0 0 1 1 2 2 2 3 5 6 6 5 5 4 4 4 3 3 3 3 3 4 4 4 4 3 3 3 3 3 2 2
0 0 0 0 0 0 0 0 0 0 0 0 0 0 0 1 1 2 2 3 4 5 6 5 5 5 4 4 3 3 2 3 4 5 6 6 5 5 4 4 5 5 4 3
0 0 0 0 0 0 0 0 0 0 0 0 0 0 0 1 1 2 2 2 3 4 5 6 6 6 5 5 4 4 3 2 3 4 6 7 7 7 6 6 7 7 6 4
0 0 0 0 0 0 0 0 0 0 0 0 0 1 1 1 1 2 2 2 2 3 5 7 7 7 6 6 6 5 4 3 3 3 5 7 8 8 7 7 8 8 7 6
0 0 0 0 0 0 0 0 0 0 0 0 0 1 1 2 2 4 4 3 3 3 5 7 7 7 7 7 7 7 5 4 3 3 4 5 6 7 7 8 9 9 7 6
0 0 0 0 0 0 0 0 0 0 0 0 0 1 1 2 4 6 7 7 5 4 5 6 7 7 7 8 8 7 6 5 5 4 4 4 4 5 6 7 8 8 6 5
0 0 0 0 0 0 0 0 0 0 0 0 0 1 1 3 5 8 10 11 9 7 6 6 7 7 8 8 8 8 7 7 6 5 4 4 4 4 4 4 5 5 4 4
0 0 0 0 0 0 0 0 0 0 0 0 0 1 2 3 5 8 10 13 13 11 9 8 7 7 8 9 9 9 9 9 8 6 5 4 4 4 3 3 3 3 3 3
0 0 0 0 0 0 0 0 0 0 0 0 1 2 3 4 5 6 8 10 12 12 13 12 11 11 11 10 11 12 12 12 10 8 6 5 4 4 4 3 3 3 3 3
0 0 0 0 0 0 0 0 0 0 0 0 1 3 5 6 5 5 6 7 8 10 11 13 14 15 16 15 13 13 14 14 12 10 8 7 6 5 6 5 4 4 4 4
0 0 0 0 0 0 0 0 0 0 0 0 1 4 7 7 6 5 6 7 8 8 9 10 11 14 16 16 16 14 14 13 12 11 10 9 8 8 8 7 6 5 5 5
0 0 0 0 0 0 0 0 0 0 0 0 1 3 6 8 8 8 9 11 11 11 9 8 7 8 11 13 14 14 14 13 12 11 11 10 11 10 9 8 7 7 6 6
0 0 0 0 0 0 0 0 0 0 1 1 1 3 6 8 10 11 12 12 12 11 9 8 6 6 7 8 9 11 13 12 10 10 10 12 13 12 10 9 9 9 9 8
0 0 0 0 0 0 0 0 0 1 1 1 2 4 6 8 10 11 10 10 9 8 7 6 6 5 5 5 6 8 11 11 9 8 9 11 12 12 10 10 10 11 12 11
0 0 0 0 0 0 0 1 1 1 1 2 3 5 8 10 10 9 7 7 6 5 5 5 5 5 5 5 5 6 8 10 7 6 7 8 9 9 10 10 10 12 13 13
0 0 0 0 0 0 0 1 1 1 1 2 4 7 10 11 9 7 6 6 6 6 6 7 7 8 8 8 7 6 7 7 6 4 4 5 6 8 9 9 9 10 11 11
0 0 0 0 0 0 1 1 1 1 2 2 3 7 10 10 7 6 5 5 6 8 9 10 11 10 10 9 9 8 7 6 5 5 4 4 6 8 10 9 8 8 8 8
0 0 0 0 0 0 0 1 1 1 1 2 3 6 8 7 6 5 5 6 8 11 12 12 11 9 9 8 8 7 7 7 7 6 6 6 6 8 9 9 8 8 8 8
0 0 0 0 0 0 0 0 0 0 1 2 3 4 6 7 6 5 5 7 11 13 13 11 10 8 8 8 7 7 8 8 8 7 7 6 5 6 7 7 8 8 8 8
0 0 0 0 0 0 0 0 0 0 1 2 3 4 5 6 5 5 6 8 10 11 12 12 12 11 11 11 11 10 10 9 8 7 6 5 4 4 4 5 6 6 6 6
0 0 0 0 0 0 0 0 0 0 1 2 4 4 6 6 5 4 5 6 7 8 9 11 13 14 14 14 13 12 10 9 7 6 5 4 4 4 3 3 3 3 4 4
0 0 0 0 0 0 0 0 0 0 1 2 4 5 7 6 5 3 3 5 6 6 7 10 12 14 14 14 13 11 9 8 7 6 5 4 4 3 3 2 2 1 2 2